Voltar ao catálogo

STARLINK-5623

AtivoComunicaçõesVLEO
NORAD 55405·PAYLOAD·🇺🇸 United States

Lançado Jan 31, 2023 de Vandenberg Space Force Base

Loading…

Próximas Passagens (próximas 24 horas)

TLE

AtualizadoSource: CelesTrak SupGP

Época: Sep 14, 2026, 21:44 UTC

1 55405C 23014Q   26257.90604167  .00017525  00000+0  14688-2 0  2579
2 55405  70.0001 307.4139 0003578 268.1387 221.9654 14.98316790    12

Acompanhe STARLINK-5623 em tempo real com AllMySat

Download on the App Store